Location: ?????
(38.2579°N, 22.9711°E)
Time: 23:57:26
(UTC+00:00)

Cosmos 1953 Rocket - Pass Details

Date: 13 December 2025
Orbit: 599 x 627 km, 82.5° (Epoch: 14 January)

Event Time Altitude Azimuth Distance (km) Brightness Sun altitude
Rises 16:06:54 0° 357° (N) 2,916 6.8 -11.2°
Reaches altitude 10° 16:09:11 10° 1° (N) 2,007 6.0 -11.6°
Maximum altitude 16:13:34 57° 81° (E) 741 3.6 -12.5°
Drops below altitude 10° 16:17:55 10° 160° (SSE) 1,994 6.2 -13.3°
Sets 16:20:10 0° 164° (SSE) 2,895 7.0 -13.7°
